When you browse on this site, cookies collect data to enhance your experience and personalize the content and advertising you see.
Visit our Privacy Policy to learn more. By continuing to use the site, you agree to this use of cookies and data.
  • Em Portugal
  • Lista de países
  • Para 7 dias
  • Temperatura da água
  • Mapas de satélite
  • Mapa do tempo
  • Widgets de tempo
  • user-avatar
    Iniciar Sessão

    Previsão horária em Wojtal

    Hoje, 20 Julho, Sábado

    Tempo Temperatura Precipitação Vento Pressão Humidade
    00:00 +16°C° 0 mm 1 m/s 749 mmHg 89%
    01:00 +16°C° 0 mm 1 m/s 749 mmHg 89%
    02:00 +16°C° 0 mm 1 m/s 749 mmHg 89%
    03:00 +16°C° 0 mm 1 m/s 749 mmHg 89%
    04:00 +16°C° 0 mm 1 m/s 749 mmHg 89%
    05:00 +18°C° 0 mm 1 m/s 749 mmHg 81%
    06:00 +20°C° 0 mm 1 m/s 749 mmHg 74%
    07:00 +23°C° 0 mm 1 m/s 750 mmHg 65%
    08:00 +25°C° 0 mm 1 m/s 750 mmHg 57%
    09:00 +27°C° 0 mm 1 m/s 750 mmHg 50%
    10:00 +29°C° 0 mm 1 m/s 750 mmHg 42%
    11:00 +29°C° 0 mm 1 m/s 750 mmHg 41%
    12:00 +29°C° 0 mm 1 m/s 750 mmHg 40%
    13:00 +29°C° 0 mm 2 m/s 750 mmHg 39%
    14:00 +29°C° 0 mm 2 m/s 750 mmHg 42%
    15:00 +28°C° 0 mm 2 m/s 750 mmHg 46%
    16:00 +27°C° 0 mm 2 m/s 750 mmHg 50%
    17:00 +26°C° 0 mm 2 m/s 750 mmHg 56%
    18:00 +25°C° 0 mm 2 m/s 749 mmHg 61%
    19:00 +24°C° 0 mm 2 m/s 749 mmHg 67%
    20:00 +23°C° 0 mm 2 m/s 749 mmHg 70%
    21:00 +22°C° 0 mm 1 m/s 749 mmHg 74%
    22:00 +21°C° 0 mm 1 m/s 750 mmHg 77%
    23:00 +21°C° 0 mm 1 m/s 749 mmHg 76%

    Amanhã, 21 Julho, Domingo

    Tempo Temperatura Precipitação Vento Pressão Humidade
    00:00 +19°C° 0 mm 2 m/s 749 mmHg 76%
    01:00 +19°C° 0 mm 2 m/s 749 mmHg 76%
    02:00 +18°C° 0 mm 2 m/s 749 mmHg 77%
    03:00 +18°C° 0 mm 2 m/s 748 mmHg 79%
    04:00 +18°C° 0 mm 2 m/s 748 mmHg 81%
    05:00 +19°C° 0.5 mm 2 m/s 748 mmHg 81%
    06:00 +20°C° 0.5 mm 3 m/s 748 mmHg 80%
    07:00 +20°C° 0.5 mm 3 m/s 748 mmHg 80%
    08:00 +22°C° 0.3 mm 3 m/s 748 mmHg 78%
    09:00 +24°C° 0.3 mm 3 m/s 749 mmHg 76%
    10:00 +25°C° 0.3 mm 3 m/s 749 mmHg 74%
    11:00 +26°C° 0.5 mm 3 m/s 749 mmHg 69%
    12:00 +27°C° 0.5 mm 4 m/s 749 mmHg 64%
    13:00 +27°C° 0.5 mm 4 m/s 749 mmHg 58%
    14:00 +27°C° 0.1 mm 4 m/s 749 mmHg 57%
    15:00 +27°C° 0.1 mm 4 m/s 750 mmHg 56%
    16:00 +27°C° 0.1 mm 5 m/s 750 mmHg 55%
    17:00 +25°C° 0.2 mm 4 m/s 750 mmHg 61%
    18:00 +23°C° 0.2 mm 4 m/s 750 mmHg 68%
    19:00 +21°C° 0.2 mm 3 m/s 750 mmHg 75%
    20:00 +20°C° 0 mm 3 m/s 751 mmHg 78%
    21:00 +19°C° 0 mm 3 m/s 751 mmHg 82%
    22:00 +18°C° 0 mm 3 m/s 751 mmHg 85%
    23:00 +17°C° 0 mm 3 m/s 752 mmHg 87%

    Depois de amanhã, 22 Julho, Segunda-feira

    Tempo Temperatura Precipitação Vento Pressão Humidade
    00:00 +17°C° 0 mm 3 m/s 752 mmHg 88%
    01:00 +15°C° 0 mm 4 m/s 752 mmHg 90%
    02:00 +17°C° 0 mm 4 m/s 752 mmHg 89%
    03:00 +17°C° 0 mm 4 m/s 752 mmHg 88%
    04:00 +18°C° 0 mm 4 m/s 752 mmHg 86%
    05:00 +18°C° 0 mm 4 m/s 753 mmHg 83%
    06:00 +17°C° 0 mm 5 m/s 753 mmHg 79%
    07:00 +17°C° 0 mm 5 m/s 753 mmHg 75%
    08:00 +20°C° 0 mm 5 m/s 753 mmHg 67%
    09:00 +21°C° 0 mm 5 m/s 754 mmHg 58%
    10:00 +22°C° 0 mm 5 m/s 754 mmHg 50%
    11:00 +23°C° 0 mm 5 m/s 754 mmHg 48%
    12:00 +23°C° 0 mm 5 m/s 754 mmHg 47%
    13:00 +25°C° 0 mm 5 m/s 754 mmHg 45%
    14:00 +23°C° 0 mm 5 m/s 754 mmHg 46%
    15:00 +23°C° 0 mm 5 m/s 754 mmHg 47%
    16:00 +23°C° 0 mm 5 m/s 754 mmHg 48%
    17:00 +22°C° 0 mm 4 m/s 754 mmHg 53%
    18:00 +21°C° 0 mm 4 m/s 754 mmHg 58%
    19:00 +19°C° 0 mm 3 m/s 754 mmHg 63%
    20:00 +18°C° 0 mm 3 m/s 754 mmHg 68%
    21:00 +17°C° 0 mm 2 m/s 754 mmHg 73%
    22:00 +16°C° 0 mm 2 m/s 754 mmHg 78%
    23:00 +17°C° 0 mm 2 m/s 754 mmHg 78%

    23 Julho, Terça-feira

    Tempo Temperatura Precipitação Vento Pressão Humidade
    00:00 +17°C° 0 mm 2 m/s 754 mmHg 77%
    01:00 +17°C° 0 mm 2 m/s 754 mmHg 77%
    02:00 +17°C° 0 mm 2 m/s 754 mmHg 78%
    03:00 +17°C° 0 mm 2 m/s 754 mmHg 79%
    04:00 +17°C° 0 mm 2 m/s 754 mmHg 80%
    05:00 +17°C° 0 mm 2 m/s 754 mmHg 81%
    06:00 +17°C° 0 mm 2 m/s 754 mmHg 81%
    07:00 +18°C° 0 mm 2 m/s 753 mmHg 82%
    08:00 +18°C° 0 mm 2 m/s 754 mmHg 81%
    09:00 +19°C° 0 mm 2 m/s 754 mmHg 81%
    10:00 +19°C° 0 mm 3 m/s 754 mmHg 80%
    11:00 +21°C° 0 mm 3 m/s 754 mmHg 76%
    12:00 +22°C° 0 mm 3 m/s 754 mmHg 71%
    13:00 +24°C° 0 mm 3 m/s 753 mmHg 66%
    14:00 +25°C° 0 mm 3 m/s 753 mmHg 65%
    15:00 +25°C° 0 mm 3 m/s 753 mmHg 64%
    16:00 +25°C° 0 mm 4 m/s 753 mmHg 62%
    17:00 +25°C° 0 mm 3 m/s 753 mmHg 66%
    18:00 +24°C° 0 mm 3 m/s 753 mmHg 69%
    19:00 +22°C° 0 mm 3 m/s 752 mmHg 72%
    20:00 +21°C° 0 mm 2 m/s 753 mmHg 78%
    21:00 +19°C° 0 mm 2 m/s 753 mmHg 85%
    22:00 +19°C° 0 mm 1 m/s 753 mmHg 91%
    23:00 +19°C° 0 mm 1 m/s 753 mmHg 93%

    24 Julho, Quarta-feira

    Tempo Temperatura Precipitação Vento Pressão Humidade
    00:00 +18°C° 0 mm 1 m/s 753 mmHg 95%
    01:00 +18°C° 0 mm 1 m/s 753 mmHg 96%
    02:00 +17°C° 0 mm 2 m/s 753 mmHg 97%
    03:00 +17°C° 0 mm 2 m/s 753 mmHg 97%
    04:00 +17°C° 0 mm 2 m/s 752 mmHg 97%
    05:00 +19°C° 0 mm 2 m/s 753 mmHg 90%
    06:00 +20°C° 0 mm 2 m/s 753 mmHg 84%
    07:00 +23°C° 0 mm 2 m/s 753 mmHg 77%
    08:00 +25°C° 0 mm 2 m/s 753 mmHg 70%
    09:00 +27°C° 0 mm 2 m/s 753 mmHg 62%
    10:00 +28°C° 0 mm 2 m/s 753 mmHg 55%
    11:00 +29°C° 0 mm 2 m/s 753 mmHg 50%
    12:00 +30°C° 0 mm 2 m/s 754 mmHg 46%
    13:00 +31°C° 0 mm 2 m/s 754 mmHg 42%
    14:00 +31°C° 0 mm 3 m/s 753 mmHg 42%
    15:00 +31°C° 0 mm 3 m/s 753 mmHg 41%
    16:00 +31°C° 0 mm 3 m/s 753 mmHg 41%
    17:00 +29°C° 0 mm 3 m/s 753 mmHg 48%
    18:00 +27°C° 0 mm 2 m/s 753 mmHg 56%
    19:00 +25°C° 0 mm 2 m/s 753 mmHg 64%
    20:00 +23°C° 0 mm 1 m/s 753 mmHg 72%
    21:00 +21°C° 0 mm 1 m/s 753 mmHg 79%
    22:00 +18°C° 0 mm 0 m/s 753 mmHg 86%
    23:00 +17°C° 0 mm 0 m/s 754 mmHg 87%

    25 Julho, Quinta-feira

    Tempo Temperatura Precipitação Vento Pressão Humidade
    00:00 +17°C° 0 mm 0 m/s 754 mmHg 87%
    01:00 +16°C° 0 mm 0 m/s 754 mmHg 88%
    02:00 +16°C° 0 mm 0 m/s 754 mmHg 88%
    03:00 +16°C° 0 mm 0 m/s 754 mmHg 87%
    04:00 +15°C° 0 mm 0 m/s 753 mmHg 87%
    05:00 +18°C° 0 mm 0 m/s 754 mmHg 76%
    06:00 +20°C° 0 mm 0 m/s 754 mmHg 66%
    07:00 +22°C° 0 mm 0 m/s 754 mmHg 56%
    08:00 +24°C° 0 mm 0 m/s 754 mmHg 50%
    09:00 +29°C° 0 mm 1 m/s 755 mmHg 43%
    10:00 +31°C° 0 mm 1 m/s 755 mmHg 37%
    11:00 +31°C° 0 mm 1 m/s 755 mmHg 35%
    12:00 +32°C° 0 mm 2 m/s 755 mmHg 34%
    13:00 +32°C° 0 mm 2 m/s 754 mmHg 33%
    14:00 +32°C° 0 mm 2 m/s 754 mmHg 35%
    15:00 +33°C° 0 mm 3 m/s 754 mmHg 37%
    16:00 +31°C° 0 mm 3 m/s 754 mmHg 39%
    17:00 +29°C° 0 mm 3 m/s 754 mmHg 47%
    18:00 +27°C° 0 mm 3 m/s 754 mmHg 56%
    19:00 +25°C° 0 mm 3 m/s 753 mmHg 64%
    20:00 +22°C° 0 mm 3 m/s 754 mmHg 70%
    21:00 +21°C° 0 mm 2 m/s 754 mmHg 77%
    22:00 +19°C° 0 mm 2 m/s 754 mmHg 84%
    23:00 +18°C° 0 mm 2 m/s 754 mmHg 87%
    Mostrar mais